255 
ASUS46 KSEW 232010
RWRWA 

WASHINGTON REGIONAL WEATHER ROUNDUP
NATIONAL WEATHER SERVICE SEATTLE WA
1200 PM PST SUN NOV 23 2014

NOTE:"FAIR" INDICATES FEW OR NO CLOUDS BELOW 12,000 FEET WITH NO 
SIGNIFICANT WEATHER AND/OR OBSTRUCTIONS TO VISIBILITY.

WAZ505-507>509-232100-
SEATTLE, TACOMA, EVERETT, AND VICINITY
  
CITY           SKY/WX    TMP DP  RH WIND       PRES   REMARKS
EVERETT        MOSUNNY   51  41  68 CALM      30.12R                  
BOEING FIELD   CLOUDY    54  47  77 S7        30.11F                  
RENTON         CLOUDY    52  47  83 S10       30.12S                  
SEATAC AIRPORT PTSUNNY   52  46  80 SW8       30.12R                  
JBLM-MCCHORD   PTSUNNY   52  49  89 S16       30.14S                  
PUYALLUP       NOT AVBL                                               
JBLM-FT LEWIS  DRIZZLE   50  49  95 S12       30.15S                  
TACOMA NARROWS MOSUNNY   52  46  80 S15G23    30.13R                  
$$
 
WAZ001-503-506-510-514-515-232100-
NORTH INTERIOR
  
CITY           SKY/WX    TMP DP  RH WIND       PRES   REMARKS
BELLINGHAM     MOSUNNY   53  40  61 S8        30.06R                  
FRIDAY HARBOR  MOSUNNY   51  40  65 SW9       30.09R                  
EASTSOUND      SUNNY     52  41  66 SW6       30.05R                  
PORT ANGELES   LGT RAIN  48  39  71 W16       30.12R                  
NAS WHIDBEY    PTSUNNY   56  44  64 W23G33    30.10R                  
BURLINGTON     SUNNY     54  45  71 SW15G21   30.10S                  
$$
 
WAZ020-022-039-040-504-511-512-232100-
SOUTHWEST INTERIOR
  
CITY           SKY/WX    TMP DP  RH WIND       PRES   REMARKS
SHELTON        MOSUNNY   52  47  83 SW14      30.12R                  
OLYMPIA        CLOUDY    51  47  86 S10       30.16R                  
CHEHALIS       FAIR      48  48 100 SW8       30.18F                  
KELSO          CLOUDY    48  43  81 CALM      30.28R                  
VANCOUVER      LGT RAIN  53  44  71 S13G25    30.24F                  
SCAPPOOSE, OR  LGT RAIN  51  46  83 CALM      30.24R                  
PORTLAND, OR   LGT RAIN  53  46  77 SW16G29   30.24F                  
$$
 
WAZ021-516-517-232100-
WASHINGTON COAST
  
CITY           SKY/WX    TMP DP  RH WIND       PRES   REMARKS
FORKS          MOSUNNY   53  45  74 W8        30.16R                  
HOQUIAM        MOSUNNY   54  47  77 W14       30.18R HAZE             
ASTORIA, OR    CLOUDY    54  50  86 W10       30.22R                  
$$
 
WAZ019-023-024-040-518-519-232100-
CASCADE MOUNTAINS AND COLUMBIA GORGE
  
CITY           SKY/WX    TMP DP  RH WIND       PRES   REMARKS
STAMPEDE PASS  NOT AVBL                                               
TROUTDALE, OR  CLOUDY    55  44  66 SW20G26   30.22F                  
THE DALLES, OR MOSUNNY   59  35  40 W22G28    30.15F                  
$$

WAZ026-027-041>044-520-521-232100-
EAST SLOPES
  
CITY           SKY/WX    TMP DP  RH WIND       PRES   REMARKS
OMAK           CLOUDY    35  32  88 E3        29.99F                  
WENATCHEE      LGT RAIN  41  35  79 W5        30.02R                  
ELLENSBURG     LGT RAIN  41  37  86 NW12      30.05F                  
YAKIMA         CLOUDY    50  37  61 W16       30.09F                  
$$

WAZ028-034-035-232100-
COLUMBIA BASIN
  
CITY           SKY/WX    TMP DP  RH WIND       PRES   REMARKS
EPHRATA        PTSUNNY   48  35  60 SW20G26   30.01F                  
MOSES LAKE     PTSUNNY   48  37  65 S17       30.03F                  
PASCO          CLOUDY    54  37  52 SW21G32   30.12F                  
HERMISTON, OR  PTSUNNY   56  34  43 SW18G29   30.15F                  
$$

WAZ036>038-232100-
NORTHEAST WASHINGTON
  
CITY           SKY/WX    TMP DP  RH WIND       PRES   REMARKS
SPOKANE GEIGER CLOUDY    39  35  86 SW24G32   30.01F                  
SPOKANE FELTS  CLOUDY    41  35  79 SW15      30.04F                  
FAIRCHILD AFB  CLOUDY    39  36  87 S18       30.00F                  
COEURDALENE,ID CLOUDY    37  34  87 S7        30.03F                  
DEER PARK      RAIN      36  34  92 S5        30.04F FOG              
$$

WAZ029>033-232100-
SOUTHEAST WASHINGTON
  
CITY           SKY/WX    TMP DP  RH WIND       PRES   REMARKS
PULLMAN        CLOUDY    44  32  62 SW17      30.10F                  
LEWISTON, ID   CLOUDY    47  35  63 S12       30.13F                  
WALLA WALLA    CLOUDY    52  33  48 S20       30.14F                  
PENDLETON, OR  PTSUNNY   52  32  46 S17       30.15F                  
$$